Flag for South Africa Weather past 2 weeks in Cape Town, South Africa

Now
57 °F

Partly sunny.


Feels Like: 53 °F
Forecast: 58 / 63 °F
Wind: 21 mph from North

Location: Cape Town International Airport

Current Time: Aug 2, 2014 at 12:24:14 PM

Latest Report: Aug 2, 2014 at 11:00 AM


Visibility: N/A

Pressure: 30.07 "Hg

Humidity: 77%

Dew point: 50 °F

Location of Cape TownLocation

Historic Weather in Cape Town — Graph

°F

Cape Town temperature yesterday

Maximum temperature yesterday: 64 °F (at 3:00 PM)
Minimum temperature yesterday: 50 °F (at 11:00 PM)
Average temperature yesterday: 56 °F

Past Weeks' High & Low Weather Summary

 TemperatureHumidityPressure
High68 °F (Jul 23, 2:00 PM)100% (Jul 23, 6:00 AM)30.51 "Hg (Jul 23, 6:00 AM)
Low37 °F (Jul 21, 4:00 AM)37% (Jul 21, 3:00 PM)29.83 "Hg (Jul 25, 4:00 AM)
Average56 °F80%30.16 "Hg
* Reported Jul 18 11:00 AM — Aug 2 11:00 AM, Cape Town, Weather by CustomWeather, © 2014

Note: Actual official high and low records may vary slightly from our data, if they occured in-between our weather recording intervals... More about our weather records

Advertising

Cape Town weather history for previous 24 hours

 ConditionsComfort  
Time TempWeatherWind HumidityBarometerVisibility
11:00 AM
Aug 2
57 °FPartly sunny.21 mph77%30.07 "HgN/A
10:00 AM57 °FPartly sunny.18 mph77%30.04 "HgN/A
9:00 AM55 °FPartly sunny.18 mph88%30.04 "HgN/A
8:00 AM55 °FPartly sunny.17 mph88%30.04 "HgN/A
7:00 AM55 °FPartly sunny.13 mph88%30.04 "HgN/A
6:00 AM55 °FPassing clouds.10 mph88%30.01 "HgN/A
5:00 AM55 °FPassing clouds.8 mph88%30.01 "Hg4 mi
4:00 AM55 °FPassing clouds.9 mph94%29.98 "Hg4 mi
3:00 AM52 °FPassing clouds.8 mph94%29.98 "Hg4 mi
2:00 AM54 °FClear.8 mph94%30.01 "Hg4 mi
1:00 AM55 °FClear.7 mph88%30.01 "Hg4 mi
11:00 PM
Aug 1
50 °FFog.3 mph94%30.01 "Hg3 mi
10:00 PM54 °FClear.2 mph94%30.01 "Hg10 mi
9:00 PM52 °FClear.3 mph94%30.01 "Hg10 mi
8:00 PM55 °FPassing clouds.3 mph88%30.01 "HgN/A
7:00 PM55 °FClear.5 mph88%29.98 "Hg10 mi
6:00 PM61 °FClear.2 mph72%30.01 "Hg10 mi
5:00 PM63 °FSunny.3 mph68%30.01 "Hg10 mi
4:00 PM64 °FPassing clouds.3 mph64%30.01 "HgN/A
3:00 PM64 °FSunny.2 mph64%30.04 "Hg10 mi
2:00 PM63 °FPassing clouds.5 mph68%30.04 "HgN/A
1:00 PM63 °FPassing clouds.5 mph68%30.07 "HgN/A
12:00 PM61 °FPassing clouds.6 mph77%30.09 "HgN/A
Weather by CustomWeather, © 2014

See weather overviewHow to use our weather pages